This demonstration page uses our WeatherBlox Daily Observations layout. Learn more.

Left ArrowRight Arrow

40.92945, -100.16068

Hourly Observations for November 6, 2021

Temp ( °F °C ) Dew Point ( °F °C ) Humidity (%) Winds ( mph kmh ) Pressure ( in mb ) Visibility ( mi km ) Precip ( " mm )
12:15 am 00:15 Clear 37 2.8 34 1.3 90 90 Calm 30.13 1020 10 16 0.00 0.00
12:35 am 00:35 Clear 36 2.1 33 0.6 90 90 Calm 30.14 1021 10 16 0.00 0.00
12:55 am 00:55 Clear 36 2.1 33 0.7 91 91 Calm 30.14 1021 10 16 0.00 0.00
1:15 am 01:15 Clear 35 1.4 33 0.3 92 92 Calm 30.14 1021 10 16 0.00 0.00
1:35 am 01:35 Clear 35 1.9 33 0.5 91 91 SW 5 7 30.15 1021 10 16 0.00 0.00
1:55 am 01:55 Clear 34 1.1 32 0.1 93 93 Calm 30.15 1021 10 16 0.00 0.00
2:15 am 02:15 Clear 34 1.2 32 0.1 92 92 W 3 6 30.16 1021 10 16 0.00 0.00
2:35 am 02:35 Clear 33 0.5 32 -0.2 95 95 NW 6 9 30.16 1021 10 16 0.00 0.00
2:55 am 02:55 Clear 33 0.6 32 0 96 96 N 5 7 30.16 1021 10 16 0.00 0.00
3:15 am 03:15 Clear 33 0.7 32 0 95 95 WNW 5 7 30.16 1021 10 16 0.00 0.00
3:35 am 03:35 Clear 33 0.7 32 0 95 95 W 6 9 30.17 1022 10 16 0.00 0.00
3:55 am 03:55 Clear 33 0.6 32 0 96 96 W 6 9 30.17 1022 10 16 0.00 0.00
4:15 am 04:15 Clear 33 0.7 32 -0.1 94 94 W 5 7 30.16 1021 10 16 0.00 0.00
4:35 am 04:35 Clear 34 1 32 0 93 93 W 5 7 30.16 1021 10 16 0.00 0.00
4:55 am 04:55 Clear 32 0 31 -0.7 95 95 WNW 5 7 30.17 1022 10 16 0.00 0.00
5:15 am 05:15 Clear 32 0 31 -0.8 94 94 NW 5 7 30.17 1022 10 16 0.00 0.00
5:35 am 05:35 Clear 32 0.2 31 -0.5 95 95 NNW 5 7 30.17 1022 10 16 0.00 0.00
5:55 am 05:55 Clear 32 0 30 -1 93 93 Calm 30.17 1022 10 16 0.00 0.00
6:15 am 06:15 Clear 33 0.3 31 -0.6 94 94 WNW 5 7 30.16 1021 10 16 0.00 0.00
6:35 am 06:35 Clear 32 0 30 -0.9 94 94 WNW 6 9 30.16 1021 10 16 0.00 0.00
6:55 am 06:55 Clear 31 -0.4 29 -1.5 92 92 WNW 6 9 30.16 1021 10 16 0.00 0.00
7:15 am 07:15 Clear 32 -0.2 30 -1.1 94 94 WNW 7 11 30.16 1021 10 16 0.00 0.00
7:35 am 07:35 Clear 32 -0.1 30 -1.1 93 93 WNW 6 9 30.16 1021 10 16 0.00 0.00
7:55 am 07:55 Clear 32 0 30 -1 93 93 WNW 5 7 30.15 1021 10 16 0.00 0.00
8:15 am 08:15 Clear 32 0 30 -1.1 92 92 W 3 6 30.16 1021 10 16 0.00 0.00
8:35 am 08:35 Sunny 32 0.1 31 -0.7 94 94 WNW 5 7 30.16 1021 10 16 0.00 0.00
8:55 am 08:55 Sunny 33 0.5 31 -0.5 93 93 W 3 6 30.16 1021 10 16 0.00 0.00
9:15 am 09:15 Sunny 37 2.8 34 1.3 90 90 W 6 9 30.14 1021 10 16 0.00 0.00
9:35 am 09:35 Sunny 42 5.3 37 3 85 85 W 6 9 30.12 1020 10 16 0.00 0.00
9:55 am 09:55 Sunny 44 6.6 39 3.7 82 82 WNW 5 7 30.10 1019 10 16 0.00 0.00
10:15 am 10:15 Sunny 44 6.5 39 3.9 84 84 NNW 3 6 30.09 1019 10 16 0.00 0.00
10:35 am 10:35 Sunny 47 8.2 40 4.2 76 76 Calm 30.08 1019 10 16 0.00 0.00
10:55 am 10:55 Sunny 50 10.1 41 5 71 71 WNW 3 6 30.06 1018 10 16 0.00 0.00
11:15 am 11:15 Sunny 53 11.9 43 5.9 67 67 NW 3 6 30.04 1017 10 16 0.00 0.00
11:35 am 11:35 Sunny 57 13.7 42 5.5 58 58 NW 3 6 30.03 1017 10 16 0.00 0.00
11:55 am 11:55 Sunny 58 14.2 42 5.3 55 55 Calm 30.02 1017 10 16 0.00 0.00
12:15 pm 12:15 Sunny 60 15.7 42 5.6 51 51 Calm 30.01 1016 10 16 0.00 0.00
12:35 pm 12:35 Sunny 62 16.6 44 6.5 52 52 SE 3 6 29.99 1016 10 16 0.00 0.00
12:55 pm 12:55 Sunny 65 18.1 45 7 48 48 SSE 7 11 29.97 1015 10 16 0.00 0.00
1:15 pm 13:15 Hazy 68 20 44 6.8 42 42 S 6 9 29.95 1014 5 8 0.00 0.00
1:35 pm 13:35 Sunny 71 21.8 39 4.1 31 31 S 12 19 29.92 1013 10 16 0.00 0.00
1:55 pm 13:55 Sunny 71 21.5 41 5.1 34 34 SSW 10 17 29.92 1013 10 16 0.00 0.00
2:15 pm 14:15 Sunny 70 21.2 40 4.4 33 33 SSW 10 17 29.90 1013 10 16 0.00 0.00
2:35 pm 14:35 Sunny 70 21 42 5.6 37 37 S 9 15 29.89 1012 10 16 0.00 0.00
2:55 pm 14:55 Sunny 71 21.7 42 5.4 35 35 S 10 17 29.87 1011 10 16 0.00 0.00
3:15 pm 15:15 Sunny 71 21.8 43 6 36 36 S 13 20 29.86 1011 10 16 0.00 0.00
3:35 pm 15:35 Sunny 72 22.1 42 5.8 35 35 S 15 24 29.84 1011 10 16 0.00 0.00
3:55 pm 15:55 Sunny 72 22.2 42 5.8 35 35 S 16 26 29.84 1011 10 16 0.00 0.00
4:15 pm 16:15 Sunny 72 22 43 6.2 36 36 SSW 12 19 29.86 1011 10 16 0.00 0.00
4:35 pm 16:35 Sunny 72 22.2 43 6.2 36 36 S 14 22 29.84 1011 10 16 0.00 0.00
4:55 pm 16:55 Sunny 72 22.1 44 6.6 37 37 SSE 8 13 29.84 1011 10 16 0.00 0.00
5:15 pm 17:15 Sunny 71 21.6 45 7.2 40 40 S 9 15 29.85 1011 10 16 0.00 0.00
5:35 pm 17:35 Sunny 70 21.1 45 7 40 40 S 8 13 29.85 1011 10 16 0.00 0.00
5:55 pm 17:55 Sunny 68 19.8 45 7.4 45 45 SE 5 7 29.86 1011 10 16 0.00 0.00
6:15 pm 18:15 Sunny 66 19 45 7.3 47 47 SE 7 11 29.87 1012 10 16 0.00 0.00
6:35 pm 18:35 Clear 63 17.4 45 7.4 52 52 SE 7 11 29.88 1012 10 16 0.00 0.00
6:55 pm 18:55 Clear 61 16.2 46 7.5 57 57 SE 8 13 29.90 1012 10 16 0.00 0.00
7:15 pm 19:15 Clear 59 15.2 46 7.5 60 60 SE 8 13 29.90 1013 10 16 0.00 0.00
7:35 pm 19:35 Clear 60 15.6 46 7.5 59 59 SE 7 11 29.90 1013 10 16 0.00 0.00
7:55 pm 19:55 Clear 58 14.5 45 7.3 62 62 SE 7 11 29.92 1013 10 16 0.00 0.00
8:15 pm 20:15 Clear 58 14.3 45 7.1 62 62 SE 8 13 29.91 1013 10 16 0.00 0.00
8:35 pm 20:35 Clear 56 13.6 45 7 65 65 SSE 9 15 29.92 1013 10 16 0.00 0.00
8:55 pm 20:55 Clear 56 13.3 45 7 66 66 SE 7 11 29.93 1014 10 16 0.00 0.00
9:15 pm 21:15 Clear 56 13.2 45 7.2 67 67 SSE 7 11 29.92 1013 10 16 0.00 0.00
9:35 pm 21:35 Clear 56 13.6 46 8 69 69 S 9 15 29.92 1013 10 16 0.00 0.00
9:55 pm 21:55 Clear 58 14.2 46 7.9 66 66 S 9 15 29.91 1013 10 16 0.00 0.00
10:15 pm 22:15 Clear 58 14.2 46 7.8 66 66 SSE 6 9 29.91 1013 10 16 0.00 0.00
10:35 pm 22:35 Clear 57 14.1 46 7.8 66 66 SE 5 7 29.91 1013 10 16 0.00 0.00
10:55 pm 22:55 Clear 59 14.8 46 7.7 63 63 S 7 11 29.91 1013 10 16 0.00 0.00
11:15 pm 23:15 Clear 58 14.5 46 7.6 64 64 S 9 15 29.91 1013 10 16 0.00 0.00
11:35 pm 23:35 Clear 58 14.5 46 7.7 64 64 S 13 20 29.91 1013 10 16 0.00 0.00
11:55 pm 23:55 Clear 58 14.5 46 7.7 64 64 S 12 19 29.91 1013 10 16 0.00 0.00

Powered by AerisWeather